2023/02/01 00:00:00,115.5,-2.1
2023/02/01 00:10:00,115.4,-2.4
2023/02/01 00:20:00,115.2,-2.4
2023/02/01 00:30:00,115.1,-1.8
2023/02/01 00:40:00,115.1,-1.9
2023/02/01 00:50:00,115.1,-1.9
2023/02/01 01:00:00,115.0,-2.1
2023/02/01 01:10:00,115.0,-2.1
2023/02/01 01:20:00,114.9,-1.7
2023/02/01 01:30:00,114.9,-2.2
2023/02/01 01:40:00,114.9,-2.2
2023/02/01 01:50:00,114.8,-1.7
2023/02/01 02:00:00,114.8,-1.8
2023/02/01 02:10:00,114.7,-2.1
2023/02/01 02:20:00,114.6,-2.6
2023/02/01 02:30:00,114.4,-1.9
2023/02/01 02:40:00,114.4,-1.9
2023/02/01 02:50:00,114.3,-2.1
2023/02/01 03:00:00,114.1,-1.9
2023/02/01 03:10:00,114.0,-1.7
2023/02/01 03:20:00,114.0,-1.6
2023/02/01 03:30:00,114.0,-1.5
2023/02/01 03:40:00,113.9,-1.2
2023/02/01 03:50:00,113.9,-0.9
2023/02/01 04:00:00,113.8,-0.2
2023/02/01 04:10:00,113.7,-1.1
2023/02/01 04:20:00,113.7,-0.3
2023/02/01 04:30:00,113.7,-0.7
2023/02/01 04:40:00,113.7,-1.0
2023/02/01 04:50:00,113.6,-0.4
2023/02/01 05:00:00,113.7, 0.2
2023/02/01 05:10:00,113.6, 0.2
2023/02/01 05:20:00,113.6,-0.1
2023/02/01 05:30:00,113.6, 0.2
2023/02/01 05:40:00,113.6, 0.1
2023/02/01 05:50:00,113.5, 0.0
2023/02/01 06:00:00,113.5, 0.0
2023/02/01 06:10:00,113.4, 0.0
2023/02/01 06:20:00,113.3,-0.2
2023/02/01 06:30:00,113.2,-0.2
2023/02/01 06:40:00,113.1, 0.9
2023/02/01 06:50:00,113.1, 1.1
2023/02/01 07:00:00,113.0, 1.2
2023/02/01 07:10:00,112.9, 1.4
2023/02/01 07:20:00,112.8, 1.3
2023/02/01 07:30:00,112.6, 1.4
2023/02/01 07:40:00,112.6, 1.4
2023/02/01 07:50:00,112.5, 1.7
2023/02/01 08:00:00,112.5, 1.8
2023/02/01 08:10:00,112.4, 1.9
2023/02/01 08:20:00,112.5, 2.4
2023/02/01 08:30:00,112.5, 2.8
2023/02/01 08:40:00,112.4, 3.5
2023/02/01 08:50:00,112.4, 3.2
2023/02/01 09:00:00,112.3, 3.6
2023/02/01 09:10:00,112.3, 3.9
2023/02/01 09:20:00,112.2, 6.5
2023/02/01 09:30:00,112.2, 6.5
2023/02/01 09:40:00,112.1, 6.7
2023/02/01 09:50:00,112.0, 7.3
2023/02/01 10:00:00,112.0, 9.3
2023/02/01 10:10:00,111.8, 5.7
2023/02/01 10:20:00,111.7, 4.8
2023/02/01 10:30:00,111.7, 4.8
2023/02/01 10:40:00,111.7, 5.2
2023/02/01 10:50:00,111.5, 4.8
2023/02/01 11:00:00,111.4, 3.8
2023/02/01 11:10:00,111.3, 3.8
2023/02/01 11:20:00,111.3, 4.3
2023/02/01 11:30:00,111.1, 3.7
2023/02/01 11:40:00,111.0, 3.4
2023/02/01 11:50:00,111.0, 3.4
2023/02/01 12:00:00,111.0, 3.3
2023/02/01 12:10:00,110.9, 3.5
2023/02/01 12:20:00,110.8, 3.6
2023/02/01 12:30:00,110.7, 3.7
2023/02/01 12:40:00,110.7, 2.8
2023/02/01 12:50:00,110.6, 2.9
2023/02/01 13:00:00,110.7, 3.3
2023/02/01 13:10:00,110.6, 3.4
2023/02/01 13:20:00,110.5, 3.2
2023/02/01 13:30:00,110.5, 3.9
2023/02/01 13:40:00,110.5, 3.7
2023/02/01 13:50:00,110.4, 3.6
2023/02/01 14:00:00,110.4, 3.9
2023/02/01 14:10:00,110.2, 3.9
2023/02/01 14:20:00,110.2, 2.8
2023/02/01 14:30:00,110.2, 2.6
2023/02/01 14:40:00,110.1, 3.2
2023/02/01 14:50:00,110.1, 3.5
2023/02/01 15:00:00,110.1, 3.5
2023/02/01 15:10:00,109.9, 2.8
2023/02/01 15:20:00,109.9, 3.3
2023/02/01 15:30:00,109.9, 3.7
2023/02/01 15:40:00,109.8, 2.1
2023/02/01 15:50:00,109.8, 1.6
2023/02/01 16:00:00,109.5, 2.5
2023/02/01 16:10:00,109.4, 2.1
2023/02/01 16:20:00,109.3, 2.0
2023/02/01 16:30:00,109.3, 1.7
2023/02/01 16:40:00,109.3, 1.5
2023/02/01 16:50:00,109.2, 1.7
2023/02/01 17:00:00,109.2, 1.6
2023/02/01 17:10:00,109.1, 3.1
2023/02/01 17:20:00,109.0, 2.8
2023/02/01 17:30:00,108.9, 2.9
2023/02/01 17:40:00,108.9, 2.8
2023/02/01 17:50:00,108.9, 1.9
2023/02/01 18:00:00,108.8, 1.8
2023/02/01 18:10:00,108.6, 2.4
2023/02/01 18:20:00,108.4, 2.0
2023/02/01 18:30:00,108.2, 2.0
2023/02/01 18:40:00,108.2, 1.5
2023/02/01 18:50:00,108.1, 1.1
2023/02/01 19:00:00,108.0, 1.1
2023/02/01 19:10:00,107.8, 0.7
2023/02/01 19:20:00,107.7, 1.0
2023/02/01 19:30:00,107.5, 0.8
2023/02/01 19:40:00,107.4, 0.8
2023/02/01 19:50:00,107.3, 0.9
2023/02/01 20:00:00,107.2, 0.9
2023/02/01 20:10:00,107.0, 0.8
2023/02/01 20:20:00,106.8, 0.8
2023/02/01 20:30:00,106.8, 0.7
2023/02/01 20:40:00,106.7, 0.7
2023/02/01 20:50:00,106.6, 1.4
2023/02/01 21:00:00,106.4, 1.5
2023/02/01 21:10:00,106.2, 1.2
2023/02/01 21:20:00,106.0, 1.1
2023/02/01 21:30:00,105.9, 1.1
2023/02/01 21:40:00,105.8, 1.1
2023/02/01 21:50:00,105.7, 1.0
2023/02/01 22:00:00,105.6, 0.7
2023/02/01 22:10:00,105.7, 0.5
2023/02/01 22:20:00,105.1, 0.7
2023/02/01 22:30:00,104.9, 0.7
2023/02/01 22:40:00,104.6, 0.7
2023/02/01 22:50:00,104.5, 0.1
2023/02/01 23:00:00,104.5, 0.1
2023/02/01 23:10:00,104.4,-0.3
2023/02/01 23:20:00,104.2, 0.1
2023/02/01 23:30:00,104.2, 0.3
2023/02/01 23:40:00,104.1,-0.2
2023/02/01 23:50:00,104.1,-0.4
